Content
SEND FEEDBACK

Daily
Averages
Monthly
Summary
Spain

MAHON, SPAIN


Home > Europe > Spain
Elevation: 269 feet     Latitude: 39 52N     Longitude: 004 14E

WEATHER
 
SELECT A DAY
Number of Records: 255,255;   Date Range: 7/1/96 - 9/29/14
 
SHARE

PRINT THIS DATA

[ ← Previous Day ]
WEATHER ALMANAC - FEBRUARY 3, 2013
[ Next Day → ]
[ °C ]   °F
Weather ElementAverageHighLow
Temperature45.3 °F50 °F (1:00 am)42.8 °F (9:00 am)
Dewpoint33.2 °F37.4 °F (1:30 pm)26.6 °F (6:00 am)
Humidity62.3 %76 % (1:30 pm)38 % (7:00 am)
Barometer30.04 in30.24 in (9:30 pm)29.77 in (1:00 am)
Wind Speed24.4 mph28.8 mph (7:30 pm)
Wind Gust46 mph (5:00 am)
Weather ElementAverage
Visibility4.8 mi
Wind DirectionNNW (344.1 °)

Weather ElementTotal
Precipitation---
Heating Degree Days18.6 (Base 65)
Averaged from 39 records on February 3, 2013
WEATHER CONDITIONS BREAKOUT
WIND DIRECTION BREAKOUT
WEATHER BY HOUR - FEBRUARY 3, 2013
[ °C ]   °F
Local TimeTemperatureDewpointHumidityBarometerVisibilityWind DirectionWind SpeedGust SpeedPrecipitationEventsConditions
1:00 AM50.0 °F30.2 °F47 %29.77 in6.2 miNNW (330°)25.3 mph43.7 mphPartly Cloudy
4:00 AM46.4 °F28.4 °F50 %29.83 in6.2 miNNW (340°)23.0 mph44.9 mphScattered Clouds
5:00 AM44.6 °F28.4 °F53 %29.83 in6.2 miNNW (340°)24.2 mph46.0 mphScattered Clouds
5:30 AM44.6 °F28.4 °F53 %29.83 in6.2 miNNW (340°)25.3 mph44.9 mphScattered Clouds
6:00 AM44.6 °F26.6 °F49 %29.86 in6.2 miNNW (340°)25.3 mph41.4 mphScattered Clouds
6:30 AM44.6 °F28.4 °F53 %29.89 in6.2 miNNW (340°)25.3 mph41.4 mphScattered Clouds
7:00 AM46.0 °F29.0 °F38 %29.92 in9.0 miNNW (340°)25.3 mphMostly Cloudy
7:00 AM44.6 °F28.4 °F53 %29.89 in6.2 miNNW (340°)24.2 mph39.1 mphMostly Cloudy
7:30 AM44.6 °F26.6 °F49 %29.92 in6.2 miNNW (330°)27.6 mph46.0 mphMostly Cloudy
8:00 AM44.6 °F28.4 °F53 %29.92 in6.2 miNNW (330°)23.0 mph41.4 mphMostly Cloudy
8:30 AM44.6 °F28.4 °F53 %29.92 in6.2 miNNW (330°)26.5 mph43.7 mphMostly Cloudy
9:00 AM42.8 °F33.8 °F70 %29.95 in3.1 miNNW (340°)23.0 mph44.9 mphRainLight Rain
9:30 AM42.8 °F33.8 °F70 %29.95 in4.3 miNNW (330°)18.4 mph34.5 mphRainLight Rain
10:00 AM44.6 °F32.0 °F61 %29.98 in6.2 miNNW (340°)27.6 mph43.7 mphMostly Cloudy
10:30 AM44.6 °F30.2 °F57 %29.98 in6.2 miNNW (340°)26.5 mph42.6 mphMostly Cloudy
11:00 AM44.6 °F33.8 °F66 %30.01 in5.6 miNNW (340°)23.0 mph38.0 mphMostly Cloudy
11:30 AM44.6 °F32.0 °F61 %30.04 in5.0 miNNW (340°)27.6 mph44.9 mphMostly Cloudy
12:00 PM44.6 °F33.8 °F66 %30.04 in5.0 miNNW (340°)26.5 mph44.9 mphMostly Cloudy
12:30 PM44.6 °F33.8 °F66 %30.04 in4.3 miNNW (340°)25.3 mph38.0 mphMostly Cloudy
1:00 PM44.6 °F35.6 °F71 %30.06 in3.1 miNNW (340°)24.2 mph36.8 mphMostly Cloudy
1:00 PM46.0 °F35.0 °F56 %30.08 in3.0 miNNW (340°)25.3 mphRainLight Rain
1:30 PM44.6 °F37.4 °F76 %30.06 in2.5 miNNW (340°)23.0 mph36.8 mphRainLight Rain
2:00 PM44.6 °F37.4 °F76 %30.06 in2.2 miNNW (340°)23.0 mph39.1 mphRainLight Rain
2:30 PM44.6 °F37.4 °F76 %30.06 in2.8 miNorth (350°)21.9 mph36.8 mphRainLight Rain
3:30 PM46.4 °F35.6 °F66 %30.09 in2.8 miNorth (350°)25.3 mph39.1 mphMostly Cloudy
4:00 PM44.6 °F37.4 °F76 %30.09 in2.5 miNorth (350°)19.6 mphRainLight Rain
4:30 PM44.6 °F37.4 °F76 %30.12 in2.5 miNorth (350°)23.0 mph35.7 mphRainLight Rain
5:00 PM44.6 °F37.4 °F76 %30.12 in3.7 miNorth (350°)21.9 mph33.4 mphRainLight Rain
5:30 PM46.4 °F37.4 °F71 %30.12 in5.6 miNorth (350°)26.5 mph39.1 mphMostly Cloudy
6:00 PM46.4 °F35.6 °F66 %30.12 in5.6 miNorth (350°)21.9 mph33.4 mphMostly Cloudy
6:30 PM46.4 °F35.6 °F66 %30.15 in5.6 miNorth (350°)20.7 mph33.4 mphMostly Cloudy
7:00 PM46.0 °F37.0 °F60 %30.20 in4.0 miNorth (350°)24.2 mphMist
7:00 PM46.4 °F35.6 °F66 %30.18 in3.7 miNorth (360°)25.3 mphMostly Cloudy
7:30 PM46.4 °F35.6 °F66 %30.18 in3.7 miNorth (360°)28.8 mph41.4 mphMostly Cloudy
8:00 PM46.4 °F35.6 °F66 %30.21 in5.0 miNorth (360°)24.2 mph39.1 mphScattered Clouds
8:30 PM46.4 °F35.6 °F66 %30.21 in5.0 miNorth (360°)27.6 mphScattered Clouds
9:00 PM46.4 °F33.8 °F62 %30.21 in5.0 miNorth (350°)27.6 mphScattered Clouds
9:30 PM46.4 °F33.8 °F62 %30.24 in5.0 miNorth (350°)20.7 mph38.0 mphMostly Cloudy
10:00 PM46.4 °F33.8 °F62 %30.24 in5.0 miNorth (360°)25.3 mph36.8 mphMostly Cloudy
Hourly data recorded from LEMH, located miles away from Mahon, Spain







STORIES FROM OUR PARTNERS